[[{"header":{"parameterUnit":"m.s-1","parameterCategory":1,"la1":30.2991,"la2":30.254,"lo1":-89.0895,"lo2":-89.0444,"dy":0.0017,"dx":0.0017,"nx":28,"ny":28,"refTime":"2025-02-28T09:00:00:Z","depth":0,"parameterNumber":2,"parameterNumberName":"U-component_of_WINDS"},"data":[0,0,0,0,0,0,0,0,0,0,0,0,0,0,0,0,0,0,0,0,0,0,0,0,0,0,0,0,0,0,0,0,0,0,0,0,0,0,0,0,0,0,0,0,0,0,0,0,0,0,0,0,0,0,0,0,0,0,0.0624,0.0624,0,0.0654,0.0654,0.0654,0.0668,0.0668,0.0668,0.0668,0.07,0.0701,0.0701,0,0,0,0,0,0,0,0,0,0,0,0,0,0.0579,0.0579,0.0624,0.0624,0.0625,0.0654,0.0654,0.0655,0.0668,0.0668,0.0668,0.0668,0.0699,0.07,0.0701,0,0,0,0,0,0,0,0,0,0,0,0,0,0.0602,0.058,0.0624,0.0635,0.0636,0.0654,0.0654,0.0655,0.0668,0.0668,0.0668,0.0668,0.0699,0.07,0.0702,0.071,0,0,0.0706,0.0706,0,0,0,0,0,0,0,0,0.0601,0.0604,0.0633,0.0634,0.0636,0.0657,0.065,0.0673,0.0668,0.0656,0.0668,0.0668,0.0686,0.0688,0.0694,0.0712,0.0713,0.0706,0.0706,0.0707,0.0707,0,0,0,0,0,0,0,0.0599,0.0603,0.0636,0.0633,0.0635,0.0639,0.0642,0.0654,0.0671,0.0657,0.0658,0.0662,0.0686,0.0692,0.0695,0.0713,0.0706,0.0707,0.0708,0.0708,0.0739,0.0739,0,0,0,0,0,0,0.0596,0.0601,0.0635,0.0637,0.0618,0.0639,0.0643,0.0651,0.0671,0.0674,0.0662,0.0662,0.069,0.0693,0.0696,0.0706,0.0707,0.0708,0.0709,0.0738,0.0739,0.0739,0,0,0,0,0,0,0.0595,0.0599,0.0634,0.0619,0.0624,0.064,0.0648,0.0651,0.0657,0.0674,0.0677,0.0665,0.069,0.0694,0.0706,0.0708,0.0709,0.071,0.0738,0.0738,0.0739,0.0728,0,0,0,0,0,0,0.0593,0.0598,0.0602,0.0619,0.0625,0.0644,0.0648,0.0652,0.0659,0.066,0.0678,0.0681,0.0691,0.0704,0.0707,0.0709,0.0711,0.0738,0.0738,0.0739,0.0728,0.0728,0.0727,0,0,0,0,0,0.0592,0.0598,0.0602,0.0606,0.063,0.0644,0.0647,0.0658,0.0659,0.0663,0.0673,0.068,0.0707,0.0705,0.0709,0.0712,0.0738,0.0738,0.0739,0.0729,0.0728,0.0727,0,0,0,0,0,0,0.0581,0.0601,0.0605,0.0617,0.0629,0.0646,0.0651,0.0657,0.0668,0.0669,0.0682,0.0686,0.0697,0.0706,0.0703,0.072,0.0723,0.0724,0.0714,0.0714,0.0713,0.0711,0.0712,0,0,0,0,0,0.058,0.059,0.0607,0.0616,0.0621,0.0635,0.0642,0.0649,0.0661,0.0666,0.0678,0.069,0.0701,0.0708,0.0719,0.0729,0.0733,0.0733,0.0732,0.0732,0.0732,0.0738,0.0737,0.0739,0.0739,0.0739,0,0,0.0578,0.059,0.0596,0.0614,0.0623,0.0633,0.0639,0.0649,0.0656,0.0668,0.068,0.0689,0.0703,0.0714,0.0719,0.0721,0.0733,0.0732,0.0731,0.0732,0.0738,0.0737,0.0737,0.0739,0.0739,0.0739,0,0,0.058,0.059,0.0598,0.0608,0.0622,0.0631,0.0633,0.0649,0.0655,0.0667,0.0675,0.0684,0.0703,0.0712,0.0719,0.0722,0.0729,0.0726,0.0723,0.0728,0.0728,0.0728,0.0728,0.0728,0.0726,0.0726,0.0726,0,0.0576,0.0591,0.0602,0.0611,0.0619,0.0629,0.0637,0.0645,0.0662,0.0667,0.0669,0.0692,0.0702,0.0715,0.0716,0.0721,0.0723,0.0724,0.0727,0.0727,0.0727,0.0728,0.0728,0.0726,0.0726,0.0726,0.0726,0,0.0585,0.0595,0.06,0.0615,0.0623,0.0632,0.0644,0.0651,0.0657,0.0665,0.0677,0.0689,0.0702,0.0706,0.0713,0.072,0.072,0.0724,0.0727,0.0726,0.0727,0.0727,0.0725,0.0725,0.0725,0.0725,0,0,0.0582,0.0602,0.0604,0.061,0.0626,0.0634,0.0643,0.0655,0.066,0.0671,0.0678,0.0693,0.0697,0.0705,0.0712,0.0717,0.0717,0.072,0.0721,0.0719,0.0724,0.0721,0.0721,0.0721,0.0721,0.0722,0.0723,0,0.0585,0.0601,0.0611,0.0623,0.0631,0.064,0.0648,0.0658,0.0666,0.0674,0.0683,0.0693,0.0697,0.0702,0.0707,0.0716,0.0719,0.0716,0.0728,0.0728,0.0724,0.0722,0.0719,0.072,0.0724,0.0724,0.0724,0,0.0592,0.0602,0.0614,0.0628,0.0632,0.0638,0.065,0.0658,0.0669,0.0674,0.0683,0.069,0.0699,0.0701,0.0713,0.0711,0.0717,0.0722,0.0722,0.0724,0.0726,0.0723,0.072,0.072,0.0724,0.0724,0.0724,0,0.0587,0.0604,0.0613,0.0619,0.0635,0.0639,0.0646,0.0657,0.0663,0.0673,0.0678,0.0689,0.0694,0.0703,0.0712,0.0713,0.0723,0.0727,0.0728,0.0727,0.073,0.0729,0.0728,0.0733,0.0733,0.0733,0.0733,0,0.059,0.0597,0.0611,0.0617,0.0625,0.0636,0.0643,0.0651,0.066,0.0667,0.0676,0.0683,0.0695,0.0703,0.0711,0.0719,0.0722,0.0726,0.0728,0.0725,0.0725,0.0729,0.0729,0.0733,0.0733,0.0733,0.0733,0,0.0587,0.0597,0.0607,0.0621,0.0625,0.063,0.0641,0.0647,0.0655,0.0664,0.0666,0.0679,0.0688,0.0699,0.0712,0.0717,0.0725,0.0728,0.0721,0.0722,0.0722,0.0722,0.0723,0.0723,0.0729,0.0729,0.0729,0,0.0588,0.0593,0.0607,0.0612,0.0619,0.0627,0.0633,0.0643,0.065,0.0662,0.0666,0.0676,0.0684,0.0699,0.0709,0.0719,0.0722,0.0722,0.0724,0.072,0.0721,0.0721,0.0721,0.0721,0.0721,0.0721,0.0721,0,0.0589,0.0593,0.0601,0.0611,0.0618,0.0626,0.0635,0.0638,0.065,0.0656,0.0666,0.0672,0.0685,0.0695,0.0706,0.0713,0.0718,0.072,0.0721,0.0718,0.0713,0.0715,0.0719,0.072,0.072,0.072,0.072,0.072,0.0587,0.0592,0.0602,0.0611,0.0618,0.0626,0.0631,0.0639,0.0647,0.0658,0.0664,0.0673,0.0683,0.0698,0.0704,0.0711,0.0713,0.0715,0.0715,0.0715,0.0714,0.0712,0.0713,0.0714,0.0714,0.0714,0.0714,0,0.0588,0.0594,0.0602,0.0614,0.062,0.0625,0.0634,0.0639,0.0647,0.0656,0.0663,0.0674,0.0683,0.0693,0.0702,0.0706,0.0709,0.0708,0.0708,0.0709,0.0712,0.071,0.0705,0.0705,0.0705,0.0705,0.0705,0.0705,0.0589,0.0597,0.0602,0.0614,0.062,0.0629,0.0634,0.064,0.0647,0.0658,0.0665,0.0671,0.068,0.069,0.0699,0.0701,0.0704,0.0702,0.0706,0.0708,0.0709,0.071,0.0708,0.0703,0.0703,0.0703,0.0703,0.0703]},{"header":{"parameterUnit":"m.s-1","parameterCategory":1,"la1":30.2991,"la2":30.254,"lo1":-89.0895,"lo2":-89.0444,"dy":0.0017,"dx":0.0017,"nx":28,"ny":28,"refTime":"2025-02-28T09:00:00:Z","depth":0,"parameterNumber":3,"parameterNumberName":"V-component_of_WINDS"},"data":[0,0,0,0,0,0,0,0,0,0,0,0,0,0,0,0,0,0,0,0,0,0,0,0,0,0,0,0,0,0,0,0,0,0,0,0,0,0,0,0,0,0,0,0,0,0,0,0,0,0,0,0,0,0,0,0,0,0,1.1983,1.1982,0,1.1917,1.1916,1.1915,1.1875,1.1874,1.1874,1.1874,1.1805,1.1803,1.1802,0,0,0,0,0,0,0,0,0,0,0,0,0,1.2073,1.2072,1.1983,1.1982,1.1982,1.1917,1.1916,1.1915,1.1875,1.1874,1.1874,1.1874,1.1805,1.1803,1.1801,0,0,0,0,0,0,0,0,0,0,0,0,0,1.2023,1.2071,1.1983,1.1954,1.195,1.1917,1.1916,1.1915,1.1875,1.1874,1.1874,1.1874,1.1806,1.1804,1.1801,1.1792,0,0,1.1794,1.1793,0,0,0,0,0,0,0,0,1.2026,1.202,1.1959,1.1956,1.1952,1.1904,1.1922,1.1874,1.1875,1.1903,1.1874,1.1874,1.1838,1.1833,1.1821,1.1789,1.1786,1.1793,1.1792,1.1791,1.179,0,0,0,0,0,0,0,1.203,1.2023,1.1957,1.1958,1.1954,1.1943,1.1936,1.1913,1.1873,1.1901,1.1898,1.189,1.1836,1.1823,1.1819,1.1785,1.1793,1.1791,1.179,1.1789,1.1742,1.1742,0,0,0,0,0,0,1.2038,1.2026,1.1959,1.1955,1.1989,1.1942,1.1933,1.1919,1.1873,1.1866,1.1891,1.1889,1.1828,1.1822,1.1816,1.1803,1.1791,1.1789,1.1787,1.1742,1.1742,1.1743,0,0,0,0,0,0,1.204,1.2032,1.1962,1.1989,1.198,1.1941,1.1925,1.1918,1.1906,1.1866,1.1858,1.1886,1.1827,1.182,1.1799,1.18,1.1787,1.1785,1.1742,1.1742,1.1742,1.1776,0,0,0,0,0,0,1.2043,1.2033,1.203,1.199,1.1978,1.1946,1.1925,1.1917,1.1902,1.1899,1.1859,1.1852,1.1827,1.1803,1.1796,1.1796,1.1783,1.1741,1.1742,1.1742,1.1775,1.1777,1.178,0,0,0,0,0,1.2046,1.2042,1.203,1.2022,1.1973,1.1946,1.1939,1.191,1.1902,1.1898,1.1872,1.1853,1.1801,1.1801,1.1793,1.1793,1.1741,1.1742,1.1742,1.1773,1.1777,1.178,0,0,0,0,0,0,1.2083,1.2036,1.2022,1.2005,1.198,1.1939,1.1933,1.1915,1.1891,1.1889,1.1854,1.1845,1.1828,1.1808,1.1809,1.1782,1.1769,1.1768,1.1795,1.1798,1.1801,1.1806,1.1781,0,0,0,0,0,1.2089,1.2071,1.2031,1.2019,1.2007,1.1972,1.1959,1.1939,1.1912,1.1901,1.1873,1.1847,1.1824,1.181,1.1787,1.1772,1.1762,1.1767,1.177,1.1773,1.1772,1.1762,1.1764,1.1744,1.1744,1.1744,0,0,1.2101,1.2073,1.2064,1.2026,1.2004,1.1985,1.1964,1.1945,1.1931,1.1898,1.1876,1.1855,1.1823,1.1805,1.1795,1.1788,1.1775,1.1773,1.1775,1.1773,1.1763,1.1765,1.1766,1.1745,1.1745,1.1745,0,0,1.2114,1.2091,1.2079,1.2058,1.2025,1.2002,1.1999,1.1961,1.1946,1.1924,1.1898,1.1881,1.1843,1.1821,1.1805,1.181,1.1791,1.1803,1.1817,1.1808,1.181,1.1811,1.1812,1.1813,1.1803,1.1803,1.1803,0,1.2133,1.2105,1.2075,1.2058,1.2042,1.2011,1.1998,1.1979,1.194,1.193,1.1922,1.1874,1.185,1.1826,1.1827,1.1816,1.1811,1.1808,1.1812,1.1813,1.1813,1.1814,1.1815,1.1805,1.1805,1.1805,1.1804,0,1.213,1.2111,1.2105,1.2069,1.2052,1.2037,1.2005,1.1991,1.1973,1.1951,1.1928,1.1899,1.1869,1.1862,1.1844,1.1835,1.1832,1.1819,1.1805,1.1817,1.1818,1.1818,1.1807,1.1807,1.1806,1.1806,0,0,1.2164,1.2112,1.211,1.2093,1.2055,1.2039,1.2023,1.1995,1.1984,1.1958,1.1943,1.1912,1.19,1.1881,1.186,1.1852,1.1858,1.184,1.1839,1.1844,1.1846,1.1857,1.1858,1.1846,1.1845,1.1845,1.1849,0,1.2171,1.214,1.2113,1.2093,1.2074,1.2045,1.2031,1.2006,1.1984,1.1965,1.1942,1.192,1.1905,1.1894,1.1885,1.1859,1.1858,1.1859,1.1831,1.183,1.184,1.1858,1.1868,1.1873,1.1849,1.1849,1.1849,0,1.2175,1.2151,1.2129,1.2092,1.2084,1.2071,1.2043,1.2026,1.1996,1.1981,1.1962,1.194,1.1921,1.191,1.1883,1.1884,1.1871,1.1856,1.1856,1.1852,1.184,1.1854,1.1874,1.1875,1.1849,1.1849,1.1849,0,1.2201,1.2164,1.2145,1.2132,1.2089,1.2081,1.2063,1.2033,1.2018,1.1993,1.1983,1.1956,1.1942,1.1921,1.1893,1.1887,1.1869,1.1855,1.1855,1.1856,1.1852,1.1853,1.187,1.1845,1.1845,1.1845,1.1845,0,1.2212,1.2199,1.2157,1.2146,1.2131,1.2099,1.2085,1.2064,1.2038,1.2022,1.1995,1.1981,1.1944,1.1925,1.1902,1.1883,1.1877,1.1864,1.1858,1.1866,1.1867,1.1857,1.1855,1.1845,1.1845,1.1845,1.1845,0,1.2239,1.221,1.2188,1.2149,1.2139,1.213,1.2097,1.2085,1.2062,1.2042,1.2035,1.2,1.1976,1.1945,1.1912,1.1896,1.188,1.1871,1.189,1.1886,1.1888,1.1888,1.1899,1.1898,1.1874,1.1874,1.1874,0,1.2247,1.2237,1.2197,1.2185,1.2168,1.2148,1.2132,1.2101,1.2086,1.2052,1.2044,1.2018,1.1995,1.1958,1.1929,1.1903,1.1893,1.1899,1.1889,1.1898,1.1893,1.1894,1.1892,1.1901,1.1901,1.1902,1.1902,0,1.2265,1.2251,1.223,1.2204,1.2186,1.2164,1.2141,1.2132,1.2096,1.208,1.2056,1.2038,1.2004,1.1979,1.1949,1.1929,1.191,1.1906,1.1904,1.1912,1.1923,1.1917,1.1896,1.1905,1.1905,1.1905,1.1905,1.1904,1.2283,1.2272,1.2243,1.222,1.2199,1.2178,1.2165,1.2141,1.212,1.209,1.2073,1.2049,1.2019,1.1978,1.1959,1.1939,1.1932,1.193,1.1929,1.1929,1.1932,1.1927,1.1934,1.1934,1.1934,1.1934,1.1933,0,1.2299,1.2279,1.2258,1.2227,1.2209,1.2192,1.2166,1.2152,1.2131,1.2106,1.2084,1.2056,1.2031,1.2,1.1973,1.1964,1.1954,1.1957,1.1958,1.1953,1.194,1.1944,1.1966,1.1966,1.1966,1.1966,1.1966,1.1966,1.2305,1.2287,1.227,1.224,1.222,1.2197,1.2183,1.2163,1.2143,1.2113,1.2092,1.2072,1.2044,1.2015,1.1991,1.1983,1.1974,1.198,1.1969,1.1957,1.1954,1.1952,1.1955,1.1979,1.1979,1.1984,1.1984,1.1984]}]]